This is the latest recevied weather packets stored in our database for station/object OH1KK. If no packets are shown the sender has not sent any weather packets the latest 10 day(s).
| Time | Temp. | Humidity | Pressure | Rain* | Wind** | Luminosity | Snow |
|---|---|---|---|---|---|---|---|
| 1778149158 | 8.33° C | 42% | 1007.7 hPa | 0 mm | - | - | - |
| 1778148242 | 7.78° C | 43% | 1007.6 hPa | 0 mm | - | - | - |
| 1778147388 | 8.33° C | 43% | 1007.7 hPa | 0 mm | - | - | - |
| 1778145557 | 7.78° C | 44% | 1007.9 hPa | 0 mm | - | - | - |
| 1778141043 | 7.78° C | 57% | 1008.1 hPa | 0 mm | - | - | - |
| 1778140189 | 7.78° C | 56% | 1008 hPa | 0 mm | - | - | - |
| 1778139274 | 7.78° C | 56% | 1007.9 hPa | 0 mm | - | - | - |
| 1778137443 | 7.22° C | 55% | 1007.9 hPa | 0 mm | - | - | - |
| 1778136591 | 6.67° C | 57% | 1007.7 hPa | 0 mm | - | - | - |
| 1778135675 | 6.67° C | 57% | 1007.8 hPa | 0 mm | - | - | - |
| 1778133846 | 6.11° C | 57% | 1007.5 hPa | 0 mm | - | - | - |
| 1778132992 | 6.11° C | 57% | 1007.3 hPa | 0 mm | - | - | - |
| 1778132076 | 5.56° C | 56% | 1007.5 hPa | 0 mm | - | - | - |
| 1778130246 | 4.44° C | 56% | 1007.4 hPa | 0 mm | - | - | - |
| 1778129391 | 3.89° C | 59% | 1007.3 hPa | 0 mm | - | - | - |
| 1778128477 | 3.33° C | 63% | 1007.3 hPa | 0 mm | - | - | - |
| 1778127562 | 2.22° C | 67% | 1007.2 hPa | 0 mm | - | - | - |
| 1778126646 | 1.11° C | 74% | 1007.1 hPa | 0 mm | - | - | - |
| 1778125792 | 0° C | 76% | 1007.3 hPa | 0 mm | - | - | - |
| 1778124880 | -0.56° C | 77% | 1007.2 hPa | 0 mm | - | - | - |
| 1778123961 | -1.11° C | 79% | 1006.9 hPa | 0 mm | - | - | - |
| 1778123046 | -1.67° C | 80% | 1006.9 hPa | 0 mm | - | - | - |
| 1778121277 | -1.67° C | 82% | 1006.9 hPa | 0 mm | - | - | - |
| 1778120361 | -2.22° C | 84% | 1007 hPa | 0 mm | - | - | - |
| 1778119446 | -2.22° C | 85% | 1006.8 hPa | 0 mm | - | - | - |
* Rain latest hour (hover to see other rain measurements)
** Current wind speed in m/s (hover to see current wind gust speed)